Home > Weather > Springfield > Past weeks

Flag for U.S.A. Weather for the Past 2 Weeks in Springfield, Massachusetts, U.S.A.

Now
21 °F

Overcast.


Feels Like: 10 °F
Forecast: 6 / 24 °F
Wind: 10 mph from South

Location: Barnes Municipal Airport

Current Time: Feb 12, 2016 at 6:40:40 PM

Latest Report: Feb 12, 2016 at 5:53 PM


Visibility: 10 mi

Pressure: 30.01 "Hg

Humidity: 43%

Dew point: 2 °F

Location of SpringfieldLocation

Historic Weather in Springfield — Graph

°F

Springfield Temperature Yesterday

Maximum temperature yesterday: 25 °F (at 12:53 AM)
Minimum temperature yesterday: 9 °F (at 11:53 PM)
Average temperature yesterday: 19 °F

High & Low Weather Summary for the Past Weeks

 TemperatureHumidityPressure
High59 °F (Feb 1, 10:53 AM)97% (Feb 3, 4:53 PM)30.40 "Hg (Feb 3, 4:53 PM)
Low1 °F (Feb 12, 5:53 AM)30% (Feb 8, 9:53 AM)29.41 "Hg (Jan 29, 12:53 PM)
Average32 °F67%29.94 "Hg
* Reported Jan 28 4:53 PM — Feb 12 4:53 PM, Springfield, Weather by CustomWeather, © 2016

Note: Actual official high and low records may vary slightly from our data, if they occured in-between our weather recording intervals... More about our weather records

Advertising

Springfield Weather History for the Previous 24 Hours

 ConditionsComfort  
Time TempWeatherWind HumidityBarometerVisibility
4:53 PM
Fri, Feb 12
22 °FOvercast.8 mph38%30.02 "Hg10 mi
3:53 PM22 °FScattered clouds.13 mph40%30.04 "Hg10 mi
2:53 PM22 °FSunny.12 mph36%30.05 "Hg10 mi
1:53 PM22 °FSunny.3 mph35%30.07 "Hg10 mi
12:53 PM21 °FSunny.7 mph41%30.11 "Hg10 mi
11:53 AM19 °FSunny.7 mph43%30.16 "Hg10 mi
10:53 AM17 °FSunny.7 mph49%30.19 "Hg10 mi
9:53 AM13 °FSunny.7 mph56%30.21 "Hg10 mi
8:53 AM10 °FSunny.6 mph61%30.22 "Hg10 mi
7:53 AM4 °FSunny.5 mph73%30.22 "Hg10 mi
6:53 AM7 °FSunny.7 mph63%30.22 "Hg10 mi
5:53 AM1 °FClear.3 mph72%30.20 "Hg10 mi
4:53 AM5 °FClear.No wind60%30.19 "Hg10 mi
3:53 AM7 °FClear.10 mph55%30.19 "Hg10 mi
2:53 AM7 °FClear.9 mph55%30.18 "Hg10 mi
1:53 AM8 °FClear.17 mph52%30.15 "Hg10 mi
12:53 AM8 °FClear.16 mph52%30.14 "Hg10 mi
11:53 PM
Thu, Feb 11
9 °FClear.12 mph50%30.13 "Hg10 mi
10:53 PM10 °FClear.13 mph48%30.11 "Hg10 mi
8:53 PM12 °FMostly cloudy.18 mph51%30.04 "Hg10 mi
7:53 PM12 °FPassing clouds.12 mph51%30.03 "Hg10 mi
6:53 PM13 °FClear.15 mph49%30.00 "Hg10 mi
Weather by CustomWeather, © 2016

See weather overviewHow to use our weather pages